{"data":{"norad_id":45388,"intl_designator":"2020-019AE","name":"STARLINK-1280","alt_names":[],"object_type":"PAYLOAD","status":"ACTIVE","operator":null,"country":"US","launch_date":"2020-03-18","launch_site_code":"AFETR","launch_vehicle":null,"mission":null,"orbit_class":"UNKNOWN","rcs_meters":null,"size_class":null,"mass_kg":null,"dimensions":null,"purposes":["comms"],"wikipedia_slug":null,"has_3d_model":false,"image_url":null,"decayed_at":null,"tle_current":{"epoch":"2026-05-25T03:20:01.741056Z","epoch_age_seconds":59055,"freshness":"FRESH","line1":"1 45388U 20019AE  26145.13890904  .00079788  00000+0  51348-3 0  9994","line2":"2 45388  53.0370 104.1079 0005798  57.6943 302.4637 15.75496452342353","mean_motion":15.75496452,"eccentricity":0.0005798,"inclination_deg":53.037,"raan_deg":104.1079,"arg_perigee_deg":57.6943,"mean_anomaly_deg":302.4637,"bstar":0.00051348,"rev_number":34235,"period_min":91.399761527359,"perigee_km":339.32179843581,"apogee_km":347.11588266852,"semimajor_km":6721.3558405522,"source":"CELESTRAK","updated_at":"2026-05-25T13:38:16.416890Z"}}}